Temperature
12 11 10 11 12 12 12 12 12 13 12 11 10 10 10 10 9 9 9 9 8 7 7 6 6 5 5 5 5 5 5 5 4 4 4 4 4 4 4 4 4 4 4 4
11 10 11 12 12 12 11 11 11 12 11 11 10 10 10 10 9 9 9 8 8 7 6 6 5 5 5 4 4 4 4 4 4 4 4 4 3 3 3 3 3 3 3 4
10 10 11 11 11 11 11 10 11 10 10 9 9 9 10 10 10 9 8 8 8 7 6 5 4 4 4 4 4 4 4 4 4 4 3 3 3 3 3 2 3 3 3 3
10 10 10 10 10 10 10 10 10 10 8 8 9 7 9 10 9 8 7 7 7 6 5 5 4 3 4 3 3 3 3 3 3 3 3 3 3 2 2 2 2 2 2 2
9 9 9 9 9 9 9 10 9 9 8 8 8 8 8 9 8 7 6 7 6 5 5 4 3 3 3 3 3 3 3 2 2 2 2 2 2 2 2 2 2 2 2 2
8 8 8 8 8 9 8 8 8 8 7 7 8 8 7 8 8 7 6 6 6 5 4 3 3 3 2 2 2 2 2 2 2 2 2 2 2 2 2 1 1 1 1 1
8 8 7 8 7 8 8 7 7 7 6 7 9 8 6 7 7 6 6 5 5 4 3 3 2 2 2 2 2 2 1 1 1 1 1 1 1 1 1 1 1 1 1 1
7 7 7 6 7 6 6 7 7 7 7 8 8 7 6 6 6 6 5 5 4 3 3 2 2 2 1 1 1 1 1 1 1 1 1 1 1 1 1 1 1 1 0 0
6 7 7 7 7 6 6 6 7 6 6 6 7 7 6 6 5 4 4 4 3 3 2 2 1 1 1 1 0 0 0 0 0 -0 -0 -0 -0 0 0 0 0 -0 -0 -0
6 5 5 6 6 6 6 6 5 5 5 6 7 7 5 4 4 4 3 3 3 2 2 1 1 1 0 0 -0 -0 -0 -0 -0 -1 -1 -1 -1 -1 -1 -0 -0 -1 -1 -1
5 4 4 4 4 5 5 5 5 5 5 5 5 5 5 4 3 3 3 3 2 2 1 1 0 0 -0 -1 -1 -1 -1 -1 -1 -1 -1 -1 -1 -1 -1 -1 -1 -1 -1 -1
4 4 4 4 5 5 5 5 4 3 4 4 4 4 3 3 3 2 2 2 1 1 1 0 -0 -1 -1 -1 -1 -2 -2 -2 -2 -2 -2 -2 -2 -2 -2 -2 -2 -2 -2 -2
4 3 3 4 3 3 3 4 4 3 3 3 3 3 2 2 2 1 1 1 1 0 -0 -1 -1 -2 -2 -2 -2 -2 -2 -2 -2 -2 -2 -2 -3 -3 -2 -3 -3 -3 -3 -3
4 2 2 3 3 3 2 2 2 2 2 2 3 3 1 1 0 0 0 0 -0 -1 -1 -2 -2 -2 -3 -3 -3 -3 -3 -3 -3 -3 -3 -3 -3 -3 -3 -3 -3 -3 -3 -3
2 2 2 2 3 2 2 2 2 1 1 1 2 1 1 0 -1 -1 -1 -1 -2 -2 -2 -3 -3 -3 -3 -3 -4 -4 -4 -4 -4 -4 -4 -4 -4 -4 -4 -4 -4 -4 -4 -4
1 1 1 1 2 1 1 1 1 1 1 1 0 -0 -1 -1 -1 -2 -2 -3 -3 -3 -4 -4 -4 -4 -4 -4 -4 -4 -4 -4 -4 -4 -4 -4 -4 -4 -5 -5 -5 -5 -5 -5
0 0 0 1 1 1 -0 -1 -1 -1 -1 -1 -1 -1 -2 -2 -3 -3 -3 -4 -4 -5 -5 -5 -5 -5 -5 -5 -5 -5 -5 -5 -5 -5 -5 -5 -5 -5 -5 -5 -5 -5 -5 -5
-1 -1 -1 -0 0 -0 -1 -1 -1 -2 -2 -3 -3 -3 -3 -3 -3 -4 -5 -5 -6 -6 -6 -6 -5 -5 -5 -5 -5 -5 -5 -6 -6 -6 -6 -6 -6 -6 -6 -6 -6 -6 -6 -6
-1 -1 -1 -1 -1 -1 -1 -2 -3 -3 -3 -5 -4 -4 -5 -5 -4 -5 -5 -6 -6 -6 -6 -6 -6 -6 -6 -6 -6 -6 -6 -6 -6 -6 -6 -6 -6 -6 -6 -6 -6 -6 -6 -6
-2 -2 -2 -1 -1 -1 -3 -4 -4 -4 -4 -6 -6 -6 -6 -6 -5 -6 -7 -7 -7 -7 -7 -7 -7 -7 -7 -7 -7 -7 -7 -7 -7 -7 -7 -7 -7 -7 -7 -7 -7 -7 -7 -7
-3 -3 -3 -2 -2 -3 -5 -5 -4 -4 -5 -7 -6 -7 -7 -7 -7 -7 -8 -8 -8 -8 -8 -8 -8 -8 -8 -7 -7 -7 -7 -7 -7 -7 -7 -7 -7 -7 -7 -7 -7 -7 -8 -8
-4 -4 -4 -3 -3 -4 -6 -6 -6 -7 -7 -7 -7 -8 -8 -8 -8 -8 -9 -9 -9 -8 -8 -8 -8 -8 -8 -8 -8 -8 -8 -8 -8 -8 -8 -8 -8 -8 -8 -8 -8 -8 -8 -8
-5 -6 -5 -5 -5 -6 -6 -7 -7 -7 -8 -8 -8 -9 -9 -9 -9 -9 -10 -10 -9 -9 -9 -9 -9 -9 -9 -9 -9 -9 -8 -8 -8 -9 -8 -8 -8 -9 -9 -9 -9 -9 -9 -9
-6 -6 -6 -6 -6 -7 -7 -8 -8 -8 -9 -9 -9 -9 -9 -10 -10 -10 -10 -10 -10 -10 -10 -10 -9 -9 -9 -9 -9 -9 -9 -9 -9 -9 -9 -9 -9 -9 -9 -9 -9 -9 -9 -9
-7 -8 -7 -7 -8 -8 -8 -8 -9 -9 -9 -9 -10 -10 -10 -10 -11 -11 -11 -11 -11 -10 -10 -10 -10 -10 -10 -10 -10 -10 -10 -10 -10 -10 -10 -10 -10 -10 -10 -10 -10 -9 -9 -9
-9 -9 -9 -9 -9 -9 -9 -9 -9 -10 -10 -10 -10 -11 -11 -11 -11 -12 -12 -11 -11 -11 -11 -10 -10 -10 -10 -10 -10 -10 -10 -10 -10 -10 -10 -10 -10 -10 -10 -10 -10 -10 -10 -10
Wind_Speed
6 6 9 10 11 10 9 9 12 8 4 6 11 12 9 8 8 9 8 8 8 7 7 7 8 8 8 9 10 9 9 8 6 5 4 4 3 3 3 5 5 6 5 5
5 11 11 7 6 9 11 13 12 7 1 4 9 12 9 10 9 8 7 7 7 7 7 8 8 8 8 9 9 10 9 8 7 5 4 3 4 3 3 4 5 5 5 4
9 6 5 8 8 9 11 11 10 7 5 6 7 9 9 6 7 6 6 6 6 7 8 8 8 8 8 9 9 9 9 8 7 6 4 4 3 3 2 3 2 3 4 4
8 6 6 7 8 8 10 6 7 7 6 6 5 7 6 6 6 6 6 5 5 5 5 7 8 8 7 7 7 8 8 8 7 7 6 7 5 4 3 3 2 3 4 4
5 3 5 7 6 7 6 4 6 8 8 8 8 7 6 5 6 6 6 5 4 5 5 6 7 7 6 6 7 7 8 7 7 7 7 6 5 4 3 4 4 3 3 4
6 3 3 4 5 5 4 4 5 4 4 8 10 8 6 3 4 3 4 4 4 5 5 4 5 6 5 6 6 6 7 7 6 6 6 6 6 6 6 5 4 4 3 3
6 5 2 2 4 3 2 2 2 3 5 7 4 5 5 1 1 2 3 3 4 4 5 4 5 6 7 7 7 6 7 7 7 7 6 6 6 6 7 6 5 4 3 3
5 5 4 2 2 2 4 4 4 5 5 3 2 6 3 2 2 3 3 3 4 4 4 4 5 5 6 7 7 6 6 6 6 6 6 5 5 4 4 5 4 4 4 3
4 4 1 1 1 2 3 4 3 4 6 6 5 4 2 2 2 3 3 3 3 3 3 3 4 4 5 6 6 6 6 5 6 5 4 4 4 4 4 4 4 3 3 3
4 5 3 1 2 3 3 2 1 3 4 6 6 4 3 1 1 2 2 2 2 2 2 2 3 4 4 4 4 5 5 4 4 4 4 4 3 3 4 4 4 3 3 3
4 4 3 2 5 5 3 2 2 3 4 4 5 3 2 1 2 1 1 2 2 1 2 2 3 3 3 3 4 4 4 4 4 4 3 3 3 3 4 4 4 3 3 3
2 3 5 5 2 3 1 3 3 3 5 4 4 3 3 4 3 3 2 2 2 2 2 2 3 3 3 3 3 4 3 3 3 3 3 3 3 3 3 3 3 3 3 3
3 2 4 2 0 2 1 2 3 3 3 4 5 4 3 4 5 4 3 2 2 2 2 2 2 2 2 2 2 3 3 3 2 3 3 3 3 3 3 3 2 2 3 3
4 3 5 7 5 3 4 4 4 4 4 5 6 7 4 5 5 4 4 3 3 3 2 2 1 1 2 2 2 2 2 2 2 2 3 3 3 3 3 2 3 2 2 3
3 5 7 9 9 6 7 7 5 7 7 7 9 8 7 5 5 4 4 3 3 3 3 2 2 1 1 1 2 2 2 2 2 2 2 2 2 2 3 3 2 2 2 2
3 5 6 8 6 5 8 7 7 8 7 9 10 10 6 5 6 6 5 4 4 4 4 4 3 2 1 1 1 2 2 1 1 1 1 1 1 2 2 2 2 2 2 2
3 4 4 6 5 6 6 4 3 3 3 4 7 8 7 7 7 5 5 5 5 5 5 4 3 2 1 0 1 1 1 1 1 1 1 1 1 2 2 2 2 2 2 2
3 3 3 5 5 6 2 3 2 2 2 4 5 7 8 8 7 3 5 6 6 5 5 4 3 3 2 1 0 1 1 1 1 1 1 1 2 2 1 2 2 2 2 2
3 3 3 3 5 5 2 4 5 3 3 7 7 9 9 9 5 3 8 8 6 5 4 4 3 2 2 1 0 1 1 1 1 1 1 2 2 2 2 2 2 2 2 2
1 2 3 3 4 4 3 6 7 3 2 8 8 8 10 9 5 3 8 9 8 7 4 4 4 3 2 1 0 1 1 1 1 1 1 1 2 3 3 3 2 2 2 2
2 2 4 5 5 3 4 7 5 2 4 8 7 7 7 5 5 6 8 8 7 6 5 4 4 3 2 1 1 1 1 1 1 1 1 1 2 3 3 2 2 2 2 2
2 3 2 3 4 4 6 5 3 4 6 6 7 7 7 6 7 7 7 7 7 6 5 4 4 4 2 1 1 1 2 1 1 1 1 2 2 2 2 2 2 2 2 3
1 2 3 2 3 2 3 2 3 5 6 6 7 7 7 7 7 8 7 7 6 5 5 4 4 4 3 2 1 2 2 1 1 1 1 2 2 2 2 3 3 2 2 3
2 2 2 3 3 4 3 4 6 6 6 7 7 7 7 7 7 8 8 7 7 6 6 5 4 4 4 3 3 2 2 1 1 2 2 2 2 2 2 2 3 3 3 3
4 3 4 4 4 5 3 5 7 8 7 7 7 6 6 6 7 7 7 7 7 7 6 5 4 5 5 3 3 3 2 1 1 2 2 2 2 2 2 2 3 3 4 5
2 3 3 5 5 6 7 7 7 8 8 8 7 8 7 6 7 7 7 7 6 6 6 6 5 5 5 4 4 3 2 2 2 3 2 2 2 2 2 2 2 5 5 7
Wind_Direction
204 216 223 224 224 246 275 274 274 269 226 218 239 249 242 222 213 215 208 199 194 192 168 157 156 154 155 157 158 161 158 156 151 149 149 146 145 132 112 108 112 110 100 91
225 231 239 254 249 250 260 270 275 287 257 254 264 261 246 228 214 206 200 198 197 182 167 165 160 160 167 170 165 164 164 161 162 161 156 149 143 139 125 114 114 115 113 107
233 246 252 252 254 255 253 252 264 279 300 265 278 275 239 216 201 189 192 191 188 181 175 171 169 168 170 175 172 170 168 165 163 150 135 134 129 126 127 138 137 127 128 120
248 255 265 256 253 252 257 265 272 273 275 261 221 273 247 211 200 198 199 193 183 169 170 171 171 173 175 174 166 163 165 164 162 154 155 157 162 165 171 164 162 142 137 131
257 249 256 258 259 262 266 304 275 260 251 264 239 244 262 202 211 205 194 188 177 165 166 170 171 172 168 164 163 165 161 163 163 163 166 170 166 161 149 153 159 162 153 151
262 271 270 270 277 268 283 296 275 262 240 249 228 219 265 222 216 186 175 170 167 159 155 155 156 158 158 157 160 163 164 166 165 167 170 174 170 164 163 167 170 170 166 164
258 228 224 274 271 240 257 281 275 245 221 241 220 216 246 223 87 144 155 151 145 144 144 150 157 162 163 163 164 165 166 169 170 173 178 183 180 177 177 175 175 172 173 175
277 260 198 208 244 246 241 230 228 245 248 275 241 224 231 178 86 74 96 112 119 129 142 162 166 163 163 163 163 165 171 172 175 181 184 181 181 181 177 174 172 177 180 179
293 274 351 249 255 249 244 239 264 276 280 269 239 208 226 125 88 84 98 106 122 134 144 156 157 156 155 162 164 168 172 173 177 182 178 180 185 180 170 166 166 173 171 178
310 288 267 291 260 238 245 271 252 226 250 258 257 230 249 241 90 77 92 105 113 110 120 132 146 150 151 159 160 161 167 174 169 173 181 187 184 173 160 160 169 171 174 171
302 280 270 258 224 224 196 212 229 249 246 246 264 249 360 135 132 129 87 97 111 131 138 138 141 144 145 143 148 156 164 165 171 175 176 175 176 166 165 168 171 173 175 179
310 283 269 261 304 17 193 208 187 224 260 249 262 259 30 42 60 83 62 63 80 88 98 118 128 123 126 139 148 155 159 169 177 173 171 174 170 159 162 168 170 173 181 193
326 289 296 287 338 18 323 276 252 269 279 258 258 252 34 35 42 45 50 36 69 67 77 93 112 121 136 148 151 152 157 166 167 170 174 172 168 162 165 171 172 181 187 194
322 250 242 266 290 301 277 272 250 232 242 260 252 268 312 349 358 358 4 19 41 38 53 78 95 120 130 140 140 135 143 145 148 157 172 174 174 171 169 172 176 186 196 199
315 267 266 275 284 282 277 271 249 234 238 248 269 276 300 328 325 330 344 7 19 26 34 30 29 38 111 128 126 123 125 132 148 160 167 175 172 169 169 175 184 189 200 216
307 284 294 280 275 281 287 288 268 256 256 260 276 280 305 327 336 339 353 7 12 17 12 5 6 5 31 147 156 148 143 143 148 158 169 161 160 165 172 176 183 198 204 212
272 275 284 274 284 301 275 290 266 261 274 266 269 283 319 327 331 332 350 9 8 360 353 351 351 347 328 242 157 157 149 144 156 166 170 174 185 188 187 189 194 208 211 214
269 282 271 286 307 260 246 39 3 240 302 328 312 327 340 331 320 1 40 24 4 350 342 340 341 338 344 358 106 122 145 160 174 178 182 198 198 205 196 190 207 225 226 221
247 241 266 282 282 272 302 7 357 313 306 12 353 348 345 339 341 47 27 12 355 341 337 335 334 335 336 337 85 124 169 173 191 206 214 215 206 209 211 215 219 230 231 242
300 235 259 266 274 275 323 337 330 314 260 13 3 349 342 344 336 327 353 348 344 342 345 345 346 352 348 353 61 166 204 205 225 247 253 243 221 215 218 222 230 242 245 248
340 264 249 259 258 265 335 327 335 320 302 342 346 341 339 333 301 306 325 332 333 334 341 346 344 340 337 346 1 262 233 244 270 283 268 258 233 226 221 213 225 228 242 242
313 299 283 279 261 279 1 13 24 313 329 334 336 337 331 321 318 322 326 327 330 335 340 342 337 328 328 339 346 312 291 294 305 280 265 255 236 228 227 205 217 220 222 232
277 268 278 260 270 321 8 20 347 341 326 328 330 328 326 321 321 324 327 327 329 331 332 333 326 321 325 337 330 293 301 327 321 284 268 259 257 242 226 207 215 219 217 230
321 334 291 295 318 345 359 6 353 342 330 326 326 325 325 319 319 323 325 326 329 330 331 332 329 325 324 329 324 300 306 322 311 279 274 269 259 253 231 232 227 225 227 230
325 334 308 287 315 324 337 345 338 335 335 333 332 331 328 322 319 320 320 320 321 324 326 328 325 318 313 317 317 313 308 299 295 279 267 268 268 266 258 255 248 244 233 233
334 312 297 284 312 305 306 326 338 335 335 335 335 334 334 329 322 323 319 318 319 322 326 326 324 319 315 318 312 306 296 273 268 279 270 264 263 263 263 265 281 277 271 267
Height
1465 1467 1465 1462 1461 1460 1460 1460 1458 1455 1455 1458 1458 1457 1455 1456 1457 1458 1459 1461 1463 1466 1468 1470 1472 1475 1477 1480 1482 1484 1487 1489 1492 1494 1495 1498 1500 1502 1503 1505 1507 1509 1511 1512
1464 1463 1458 1458 1458 1459 1460 1460 1457 1455 1455 1457 1456 1453 1450 1450 1451 1453 1455 1457 1459 1462 1465 1467 1469 1471 1473 1475 1478 1481 1484 1486 1489 1491 1493 1495 1497 1499 1501 1503 1505 1507 1508 1510
1460 1457 1457 1458 1457 1458 1457 1458 1457 1458 1458 1457 1458 1453 1447 1444 1446 1449 1451 1453 1456 1458 1461 1463 1465 1467 1470 1472 1474 1477 1480 1483 1486 1488 1491 1493 1495 1497 1499 1501 1502 1504 1506 1507
1458 1456 1456 1456 1456 1456 1457 1454 1455 1457 1462 1461 1458 1460 1445 1442 1444 1446 1448 1450 1452 1455 1457 1460 1462 1464 1466 1469 1472 1474 1477 1480 1483 1485 1487 1489 1490 1492 1495 1497 1499 1501 1503 1504
1456 1455 1456 1456 1456 1456 1454 1454 1455 1455 1458 1460 1454 1458 1446 1438 1442 1444 1446 1448 1450 1452 1455 1457 1459 1461 1463 1466 1469 1472 1474 1477 1480 1482 1484 1486 1488 1490 1492 1494 1496 1498 1499 1501
1456 1455 1455 1455 1455 1455 1455 1455 1454 1455 1458 1461 1448 1452 1447 1441 1439 1440 1443 1445 1447 1450 1452 1454 1457 1459 1461 1464 1466 1469 1471 1474 1476 1479 1481 1483 1485 1487 1489 1491 1492 1494 1496 1497
1454 1454 1454 1455 1455 1455 1456 1460 1462 1461 1460 1452 1440 1446 1447 1440 1439 1440 1442 1444 1446 1448 1450 1452 1454 1457 1459 1461 1463 1466 1468 1470 1473 1475 1477 1480 1482 1484 1485 1487 1488 1490 1492 1494
1456 1455 1454 1455 1456 1457 1457 1457 1461 1461 1453 1445 1441 1445 1445 1440 1439 1439 1441 1443 1445 1447 1449 1451 1453 1454 1456 1458 1460 1463 1465 1467 1469 1472 1474 1476 1478 1480 1482 1484 1485 1487 1488 1490
1460 1455 1453 1453 1454 1455 1455 1456 1453 1457 1453 1452 1442 1439 1441 1439 1440 1441 1442 1443 1445 1447 1448 1450 1451 1453 1454 1456 1457 1460 1462 1464 1466 1468 1470 1472 1474 1476 1478 1480 1482 1483 1485 1486
1462 1461 1455 1454 1454 1454 1455 1455 1458 1458 1457 1451 1437 1437 1443 1443 1442 1442 1443 1444 1445 1446 1447 1449 1450 1451 1452 1454 1455 1457 1459 1461 1463 1465 1467 1469 1471 1473 1474 1476 1478 1479 1481 1482
1463 1464 1459 1457 1455 1453 1456 1457 1456 1456 1453 1451 1446 1447 1442 1441 1442 1443 1444 1444 1445 1446 1447 1448 1448 1450 1451 1452 1453 1454 1456 1458 1460 1462 1463 1465 1467 1469 1470 1472 1473 1475 1476 1478
1464 1464 1460 1455 1452 1451 1452 1453 1457 1462 1457 1450 1447 1451 1444 1443 1442 1443 1444 1445 1446 1446 1447 1447 1448 1448 1449 1450 1451 1452 1453 1455 1457 1459 1460 1461 1463 1465 1466 1468 1469 1471 1472 1473
1465 1466 1463 1456 1458 1457 1456 1455 1456 1458 1458 1454 1451 1452 1446 1445 1444 1445 1445 1446 1446 1446 1446 1446 1446 1447 1447 1448 1448 1449 1450 1452 1454 1455 1456 1458 1459 1461 1462 1464 1465 1467 1468 1469
1465 1465 1466 1462 1455 1457 1459 1458 1457 1459 1460 1455 1450 1448 1449 1449 1448 1447 1447 1446 1446 1446 1446 1445 1445 1445 1445 1446 1446 1447 1448 1449 1450 1452 1453 1454 1455 1457 1458 1460 1461 1462 1463 1464
1466 1465 1461 1458 1455 1456 1456 1456 1456 1457 1455 1455 1449 1449 1450 1451 1450 1449 1447 1447 1446 1446 1445 1445 1444 1444 1443 1443 1444 1444 1445 1446 1447 1449 1450 1451 1452 1454 1455 1456 1457 1458 1459 1460
1467 1466 1462 1459 1454 1454 1454 1454 1454 1454 1454 1453 1451 1450 1451 1452 1450 1449 1448 1447 1446 1446 1445 1444 1443 1442 1442 1442 1442 1442 1442 1443 1444 1445 1446 1448 1449 1450 1451 1452 1453 1453 1454 1455
1468 1467 1465 1458 1453 1455 1455 1457 1457 1456 1457 1456 1455 1454 1451 1450 1450 1449 1448 1447 1447 1446 1445 1444 1443 1441 1441 1440 1440 1439 1440 1441 1442 1442 1443 1444 1445 1446 1447 1448 1449 1449 1450 1451
1469 1468 1466 1461 1458 1459 1459 1456 1455 1456 1457 1458 1456 1454 1453 1452 1449 1448 1448 1447 1446 1446 1445 1443 1442 1440 1439 1438 1438 1438 1438 1438 1439 1439 1440 1441 1441 1442 1443 1444 1444 1445 1446 1447
1467 1468 1467 1464 1462 1457 1457 1459 1460 1459 1457 1461 1459 1457 1455 1452 1447 1447 1447 1447 1446 1445 1444 1442 1440 1438 1437 1436 1436 1435 1435 1435 1436 1436 1436 1437 1438 1438 1439 1440 1441 1442 1442 1443
1467 1468 1469 1464 1463 1459 1464 1463 1460 1460 1459 1462 1460 1459 1456 1453 1451 1449 1448 1447 1445 1443 1442 1440 1438 1436 1435 1434 1434 1433 1433 1432 1432 1432 1433 1434 1435 1435 1435 1436 1437 1438 1439 1439
1472 1471 1471 1467 1465 1464 1469 1464 1460 1464 1464 1464 1461 1460 1458 1456 1455 1451 1448 1445 1444 1442 1440 1438 1436 1435 1434 1433 1432 1431 1430 1430 1430 1430 1430 1431 1431 1432 1432 1433 1434 1434 1435 1435
1477 1476 1474 1470 1467 1470 1470 1467 1470 1470 1467 1464 1462 1460 1457 1454 1451 1448 1446 1444 1441 1439 1437 1435 1434 1432 1432 1431 1430 1428 1428 1428 1428 1427 1427 1428 1428 1428 1429 1429 1430 1431 1431 1431
1479 1480 1476 1476 1476 1473 1471 1470 1470 1468 1465 1463 1460 1458 1456 1452 1449 1447 1444 1442 1439 1437 1435 1433 1431 1430 1429 1428 1427 1426 1425 1425 1425 1424 1424 1424 1425 1425 1425 1426 1426 1427 1427 1428
1478 1477 1476 1475 1472 1472 1471 1469 1468 1466 1464 1461 1459 1456 1453 1450 1447 1445 1442 1440 1437 1435 1433 1431 1429 1427 1426 1425 1425 1424 1423 1422 1422 1421 1421 1421 1421 1421 1422 1422 1423 1423 1423 1424
1481 1480 1478 1475 1474 1471 1469 1469 1467 1464 1462 1459 1456 1454 1451 1448 1446 1443 1440 1438 1435 1433 1431 1429 1427 1425 1424 1423 1421 1421 1420 1419 1419 1418 1418 1418 1418 1418 1418 1419 1419 1419 1420 1421
1483 1483 1481 1478 1476 1474 1470 1468 1465 1462 1460 1457 1454 1451 1449 1447 1444 1441 1438 1436 1433 1430 1428 1426 1425 1423 1421 1420 1419 1418 1417 1417 1416 1415 1415 1415 1415 1415 1415 1415 1416 1416 1417 1417